When you browse on this site, cookies collect data to enhance your experience and personalize the content and advertising you see.
Visit our Privacy Policy to learn more. By continuing to use the site, you agree to this use of cookies and data.
  • în România
  • Lista ţărilor
  • Pe 7 zile
  • Temperatura apei
  • Meteo pe hartă
  • Widget-uri
  • user-avatar
    Intrare

    Meteo pe oră la Singida

    Astăzi, 6 Aprilie, Luni

    Timp Temperatura Precipitaţii Vânt Presiune Umiditate
    00:00 +17°C° 0 mm 2 m/s 637 mmHg 94%
    01:00 +18°C° 0 mm 1 m/s 636 mmHg 94%
    02:00 +16°C° 0 mm 1 m/s 636 mmHg 95%
    03:00 +16°C° 0 mm 1 m/s 636 mmHg 95%
    04:00 +16°C° 0 mm 1 m/s 636 mmHg 96%
    05:00 +16°C° 0 mm 1 m/s 636 mmHg 96%
    06:00 +18°C° 0 mm 1 m/s 637 mmHg 93%
    07:00 +20°C° 0 mm 1 m/s 638 mmHg 89%
    08:00 +21°C° 0 mm 1 m/s 639 mmHg 86%
    09:00 +23°C° 0.8 mm 1 m/s 639 mmHg 82%
    10:00 +24°C° 0.8 mm 1 m/s 639 mmHg 78%
    11:00 +26°C° 0.8 mm 1 m/s 640 mmHg 75%
    12:00 +26°C° 1.1 mm 1 m/s 639 mmHg 74%
    13:00 +26°C° 1.1 mm 1 m/s 638 mmHg 73%
    14:00 +27°C° 1.1 mm 1 m/s 637 mmHg 72%
    15:00 +24°C° 0.8 mm 0 m/s 636 mmHg 75%
    16:00 +23°C° 0.8 mm 0 m/s 636 mmHg 79%
    17:00 +22°C° 0.8 mm 0 m/s 636 mmHg 83%
    18:00 +21°C° 1.2 mm 0 m/s 636 mmHg 86%
    19:00 +21°C° 1.2 mm 1 m/s 636 mmHg 88%
    20:00 +20°C° 1.2 mm 1 m/s 636 mmHg 91%
    21:00 +20°C° 0.1 mm 1 m/s 636 mmHg 92%
    22:00 +19°C° 0.1 mm 1 m/s 637 mmHg 92%
    23:00 +19°C° 0.1 mm 1 m/s 637 mmHg 93%

    Mâine, 7 Aprilie, Marţi

    Timp Temperatura Precipitaţii Vânt Presiune Umiditate
    00:00 +19°C° 0.1 mm 1 m/s 637 mmHg 93%
    01:00 +19°C° 0.1 mm 1 m/s 636 mmHg 93%
    02:00 +18°C° 0.1 mm 1 m/s 636 mmHg 94%
    03:00 +18°C° 0 mm 1 m/s 636 mmHg 94%
    04:00 +18°C° 0 mm 1 m/s 636 mmHg 95%
    05:00 +18°C° 0 mm 1 m/s 636 mmHg 95%
    06:00 +19°C° 0 mm 1 m/s 637 mmHg 93%
    07:00 +20°C° 0 mm 1 m/s 638 mmHg 91%
    08:00 +22°C° 0 mm 1 m/s 639 mmHg 88%
    09:00 +23°C° 1.2 mm 1 m/s 639 mmHg 85%
    10:00 +24°C° 1.2 mm 1 m/s 639 mmHg 81%
    11:00 +26°C° 1.2 mm 1 m/s 639 mmHg 77%
    12:00 +25°C° 2.1 mm 1 m/s 638 mmHg 78%
    13:00 +25°C° 2.1 mm 1 m/s 637 mmHg 79%
    14:00 +25°C° 2.1 mm 1 m/s 636 mmHg 79%
    15:00 +24°C° 1.7 mm 1 m/s 636 mmHg 83%
    16:00 +24°C° 1.7 mm 1 m/s 635 mmHg 86%
    17:00 +23°C° 1.7 mm 1 m/s 635 mmHg 89%
    18:00 +22°C° 0.5 mm 1 m/s 636 mmHg 89%
    19:00 +21°C° 0.5 mm 1 m/s 636 mmHg 89%
    20:00 +21°C° 0.5 mm 1 m/s 637 mmHg 89%
    21:00 +20°C° 0.6 mm 1 m/s 637 mmHg 90%
    22:00 +20°C° 0.6 mm 1 m/s 637 mmHg 92%
    23:00 +20°C° 0.6 mm 1 m/s 637 mmHg 93%

    Poimâine, 8 Aprilie, Miercuri

    Timp Temperatura Precipitaţii Vânt Presiune Umiditate
    00:00 +20°C° 0.6 mm 1 m/s 637 mmHg 93%
    01:00 +19°C° 0.6 mm 1 m/s 636 mmHg 93%
    02:00 +19°C° 0.6 mm 1 m/s 636 mmHg 94%
    03:00 +19°C° 0.7 mm 1 m/s 636 mmHg 94%
    04:00 +19°C° 0.7 mm 1 m/s 636 mmHg 95%
    05:00 +19°C° 0.7 mm 1 m/s 636 mmHg 95%
    06:00 +19°C° 0.4 mm 1 m/s 637 mmHg 95%
    07:00 +20°C° 0.4 mm 1 m/s 638 mmHg 94%
    08:00 +18°C° 0.4 mm 0 m/s 639 mmHg 94%
    09:00 +21°C° 1.1 mm 1 m/s 639 mmHg 92%
    10:00 +22°C° 1.1 mm 1 m/s 639 mmHg 91%
    11:00 +22°C° 1.1 mm 1 m/s 639 mmHg 89%
    12:00 +22°C° 1 mm 1 m/s 638 mmHg 91%
    13:00 +21°C° 1 mm 1 m/s 637 mmHg 93%
    14:00 +20°C° 1 mm 1 m/s 636 mmHg 95%
    15:00 +20°C° 0.2 mm 1 m/s 636 mmHg 95%
    16:00 +20°C° 0.2 mm 1 m/s 636 mmHg 95%
    17:00 +19°C° 0.2 mm 2 m/s 636 mmHg 95%
    18:00 +18°C° 0.2 mm 2 m/s 636 mmHg 95%
    19:00 +18°C° 0.2 mm 2 m/s 636 mmHg 95%
    20:00 +18°C° 0.2 mm 2 m/s 637 mmHg 94%
    21:00 +18°C° 0.1 mm 2 m/s 637 mmHg 95%
    22:00 +18°C° 0.1 mm 2 m/s 637 mmHg 95%
    23:00 +18°C° 0.1 mm 2 m/s 637 mmHg 95%

    9 Aprilie, Joi

    Timp Temperatura Precipitaţii Vânt Presiune Umiditate
    00:00 +18°C° 0.1 mm 2 m/s 637 mmHg 95%
    01:00 +18°C° 0.1 mm 3 m/s 637 mmHg 96%
    02:00 +18°C° 0.1 mm 3 m/s 636 mmHg 96%
    03:00 +17°C° 0 mm 3 m/s 637 mmHg 95%
    04:00 +17°C° 0 mm 3 m/s 637 mmHg 94%
    05:00 +17°C° 0 mm 3 m/s 637 mmHg 93%
    06:00 +17°C° 0.1 mm 3 m/s 637 mmHg 93%
    07:00 +18°C° 0.1 mm 3 m/s 638 mmHg 92%
    08:00 +18°C° 0.1 mm 3 m/s 639 mmHg 92%
    09:00 +19°C° 0 mm 3 m/s 638 mmHg 89%
    10:00 +20°C° 0 mm 3 m/s 638 mmHg 86%
    11:00 +21°C° 0 mm 3 m/s 638 mmHg 83%
    12:00 +22°C° 0.4 mm 3 m/s 638 mmHg 81%
    13:00 +24°C° 0.4 mm 3 m/s 637 mmHg 79%
    14:00 +25°C° 0.4 mm 3 m/s 637 mmHg 77%
    15:00 +24°C° 1.2 mm 3 m/s 636 mmHg 81%
    16:00 +22°C° 1.2 mm 3 m/s 636 mmHg 85%
    17:00 +21°C° 1.2 mm 3 m/s 636 mmHg 89%
    18:00 +20°C° 1.2 mm 3 m/s 636 mmHg 91%
    19:00 +20°C° 1.2 mm 3 m/s 637 mmHg 92%
    20:00 +19°C° 1.2 mm 3 m/s 637 mmHg 94%
    21:00 +19°C° 0.6 mm 3 m/s 637 mmHg 94%
    22:00 +18°C° 0.6 mm 3 m/s 637 mmHg 95%
    23:00 +18°C° 0.6 mm 3 m/s 637 mmHg 95%

    10 Aprilie, Vineri

    Timp Temperatura Precipitaţii Vânt Presiune Umiditate
    00:00 +18°C° 0.1 mm 3 m/s 637 mmHg 95%
    01:00 +17°C° 0.1 mm 3 m/s 636 mmHg 95%
    02:00 +17°C° 0.1 mm 3 m/s 636 mmHg 96%
    03:00 +16°C° 0 mm 3 m/s 636 mmHg 96%
    04:00 +16°C° 0 mm 3 m/s 636 mmHg 96%
    05:00 +16°C° 0 mm 3 m/s 636 mmHg 95%
    06:00 +17°C° 0 mm 4 m/s 637 mmHg 93%
    07:00 +18°C° 0 mm 4 m/s 638 mmHg 91%
    08:00 +19°C° 0 mm 5 m/s 638 mmHg 89%
    09:00 +20°C° 0 mm 5 m/s 638 mmHg 84%
    10:00 +21°C° 0 mm 5 m/s 639 mmHg 78%
    11:00 +23°C° 0 mm 5 m/s 639 mmHg 72%
    12:00 +23°C° 0 mm 4 m/s 638 mmHg 71%
    13:00 +25°C° 0 mm 4 m/s 637 mmHg 69%
    14:00 +25°C° 0 mm 4 m/s 637 mmHg 67%
    15:00 +25°C° 0 mm 4 m/s 636 mmHg 72%
    16:00 +24°C° 0 mm 3 m/s 636 mmHg 77%
    17:00 +22°C° 0 mm 3 m/s 636 mmHg 82%
    18:00 +21°C° 0 mm 3 m/s 636 mmHg 85%
    19:00 +19°C° 0 mm 3 m/s 636 mmHg 88%
    20:00 +18°C° 0 mm 3 m/s 636 mmHg 91%
    21:00 +18°C° 0 mm 3 m/s 637 mmHg 91%
    22:00 +18°C° 0 mm 4 m/s 637 mmHg 92%
    23:00 +18°C° 0 mm 4 m/s 637 mmHg 92%

    11 Aprilie, Sâmbătă

    Timp Temperatura Precipitaţii Vânt Presiune Umiditate
    00:00 +17°C° 0 mm 3 m/s 636 mmHg 93%
    01:00 +17°C° 0 mm 3 m/s 636 mmHg 93%
    02:00 +17°C° 0 mm 3 m/s 635 mmHg 93%
    03:00 +17°C° 0 mm 3 m/s 636 mmHg 94%
    04:00 +16°C° 0 mm 3 m/s 636 mmHg 95%
    05:00 +16°C° 0 mm 3 m/s 636 mmHg 96%
    06:00 +17°C° 0 mm 3 m/s 637 mmHg 91%
    07:00 +18°C° 0 mm 4 m/s 637 mmHg 87%
    08:00 +20°C° 0 mm 4 m/s 638 mmHg 83%
    09:00 +21°C° 0 mm 4 m/s 638 mmHg 77%
    10:00 +23°C° 0 mm 4 m/s 638 mmHg 72%
    11:00 +25°C° 0 mm 4 m/s 639 mmHg 67%
    12:00 +25°C° 0 mm 4 m/s 638 mmHg 66%
    13:00 +26°C° 0 mm 4 m/s 637 mmHg 65%
    14:00 +26°C° 0 mm 4 m/s 637 mmHg 65%
    15:00 +25°C° 0.1 mm 3 m/s 636 mmHg 70%
    16:00 +24°C° 0.1 mm 3 m/s 636 mmHg 76%
    17:00 +22°C° 0.1 mm 3 m/s 635 mmHg 82%
    18:00 +21°C° 0 mm 3 m/s 635 mmHg 84%
    19:00 +20°C° 0 mm 3 m/s 636 mmHg 87%
    20:00 +18°C° 0 mm 3 m/s 636 mmHg 90%
    21:00 +18°C° 0 mm 3 m/s 636 mmHg 90%
    22:00 +18°C° 0 mm 3 m/s 636 mmHg 91%
    23:00 +18°C° 0 mm 3 m/s 637 mmHg 91%
    Arată mai mult